{"data":{"norad_id":43571,"intl_designator":"2018-061C","name":"IRIDIUM 158","alt_names":[],"object_type":"PAYLOAD","status":"ACTIVE","operator":null,"country":"US","launch_date":"2018-07-25","launch_site_code":"AFWTR","launch_vehicle":null,"mission":null,"orbit_class":"UNKNOWN","rcs_meters":null,"size_class":null,"mass_kg":null,"dimensions":null,"purposes":["comms"],"wikipedia_slug":null,"has_3d_model":false,"image_url":null,"decayed_at":null,"tle_current":{"epoch":"2026-09-20T01:53:22.538112Z","epoch_age_seconds":51764,"freshness":"FRESH","line1":"1 43571U 18061C   26263.07873308  .00000081  00000+0  21779-4 0  9999","line2":"2 43571  86.4011  17.0731 0002181  92.1990 267.9455 14.34217433426960","mean_motion":14.34217433,"eccentricity":0.0002181,"inclination_deg":86.4011,"raan_deg":17.0731,"arg_perigee_deg":92.199,"mean_anomaly_deg":267.9455,"bstar":2.1779e-5,"rev_number":42696,"period_min":100.40318621619,"perigee_km":776.10752765211,"apogee_km":779.22888988418,"semimajor_km":7155.8052087681,"source":"CELESTRAK","updated_at":"2026-09-20T09:00:36.332070Z"}}}